Regional Weather Roundup
Issued by NWS

Home | Current Version | Previous Version | Graphics & Text | Print | Product List | Glossary Off
Versions: 1 2 3 4 5 6 7 8 9 10 11 12 13 14 15 16 17 18 19 20 21 22 23 24 25 26 27 28 29 30 31 32 33 34 35 36 37 38 39 40 41 42 43 44 45 46 47 48 49 50

000
ASUS43 KTOP 221908
RWRKS

WEATHER ROUNDUP FOR KANSAS
NATIONAL WEATHER SERVICE GOODLAND KS
100 PM CST THU FEB 22 2018

NOTE:  "FAIR" INDICATES FEW OR NO CLOUDS BELOW 12,000 FEET WITH NO
SIGNIFICANT WEATHER AND/OR OBSTRUCTIONS TO VISIBILITY.

KSZ001>006-013>018-027>032-041>047-222000-
NORTHWEST KANSAS

CITY           SKY/WX    TMP DP  RH WIND       PRES   REMARKS
GOODLAND       PTSUNNY   25  16  68 SE7       30.05F
HAYS           CLOUDY    27  23  85 SE10      30.20F WCI  17
HILL CITY      CLOUDY    25  22  88 SE8       30.18F
RUSSELL        CLOUDY    29  26  89 SE7       30.23R
$$

KSZ061>065-074>080-084>089-222000-
SOUTHWEST KANSAS

CITY           SKY/WX    TMP DP  RH WIND       PRES   REMARKS
DODGE CITY     CLOUDY    27  24  89 SE12      30.16F WCI  17
ELKHART        SUNNY     43  20  40 S17G24    30.05F
GARDEN CITY    CLOUDY    29  20  69 SE16G29   30.11F WCI  17
GREAT BEND     CLOUDY    29  27  92 SE7       30.21F
LIBERAL        CLOUDY    31  22  69 SE14G21   30.13F WCI  21
PRATT          CLOUDY    28  26  91 SE5       30.21F
$$

KSZ066>073-081>083-090>101-222000-
SOUTHEAST KANSAS

CITY           SKY/WX    TMP DP  RH WIND       PRES   REMARKS
CHANUTE        CLOUDY    34  32  92 CALM      30.35S
COFFEYVILLE    CLOUDY    36  34  92 N6        30.31F
HUTCHINSON     CLOUDY    30  29  96 E7        30.22F
MEDICINE LODGE   N/A     29  27  92 SE3       30.23F
NEWTON         CLOUDY    30  28  92 E8        30.22F
PARSONS        CLOUDY    35  34  96 CALM      30.34F
WICHITA INTL   FRZ RAIN  31  30  96 NE5       30.23F FOG
WICHITA JABRA  CLOUDY    30  30 100 E3        30.22F
WICHITA MCCONL MIX PCPN  30  30 100 CALM      30.21
WINFIELD       CLOUDY    32  32 100 E10       30.20F WCI  24
$$

KSZ007>012-019>026-033>040-048>060-102>105-222000-
NORTHEAST KANSAS

CITY           SKY/WX    TMP DP  RH WIND       PRES   REMARKS
CONCORDIA      CLOUDY    27  26  96 E10       30.24F WCI  17
EMPORIA        FRZ RAIN  30  28  92 E10       30.27F FOG     WCI  21
LAWRENCE       CLOUDY    31  30  96 NE3       30.34F FOG
MANHATTAN      CLOUDY    31  28  89 E9        30.28F
MARYSVILLE     CLOUDY    30  28  93 SE8       30.29F
OLATHE IND     CLOUDY    31  31 100 E5        30.34R
OLATHE EXE     CLOUDY    30  30 100 E7        30.32S FOG
SALINA         MIX PCPN  31  29  92 E8        30.25F
TOPEKA BILLARD CLOUDY    31  30  96 E7        30.32F FOG
TOPEKA FORBES  CLOUDY    31  29  92 SE8       30.30F FOG
$$




USA.gov is the U.S. government's official web portal to all federal, state and local government web resources and services.